CAPE
0 0 0 0 0 0 0 0 0 0 0 0 0 0 0 0 0 0 0 0 0 0 0 0 0 0 0 0 7 980 2045 2435 2070 2073 2004 1964 2014 1887 1893 2036 1868 1740 1708 1949
0 0 0 0 0 0 0 0 0 0 0 0 0 0 0 0 0 0 0 0 0 0 0 0 0 0 0 0 15 250 1248 2498 2219 1936 1855 1895 1842 1757 1558 1588 1911 1925 1793 1907
0 0 0 0 0 0 0 0 0 0 0 0 0 0 0 0 0 0 0 0 0 0 0 0 0 0 0 0 0 81 656 1980 2626 2396 1931 1962 2099 1864 1603 1622 1773 1861 1750 1621
0 0 0 0 0 0 0 0 0 0 0 0 0 0 0 0 0 0 0 0 0 0 0 0 0 0 0 0 0 0 352 1360 2334 2804 2646 2578 2457 2227 2125 2013 2016 2108 2057 1977
0 0 0 0 0 0 0 0 0 0 0 0 0 0 0 0 0 0 0 0 0 0 0 0 0 0 0 0 0 29 137 584 1737 2743 3077 3033 3040 2731 2740 2598 2643 2872 2373 2159
0 0 0 0 0 0 0 0 0 0 0 0 0 0 0 0 0 0 0 0 0 0 0 0 0 0 0 0 0 0 267 493 1014 2080 2663 3184 3421 3190 2754 2859 2936 2965 2901 2701
0 0 0 0 0 0 0 0 0 0 0 0 0 0 0 0 0 0 0 0 0 0 0 0 0 0 0 0 0 0 116 610 909 1576 2626 3183 3623 3624 3221 3009 3022 2904 2570 2406
0 0 0 0 0 0 0 0 0 0 2 2 0 0 0 0 0 0 0 0 0 0 0 0 0 0 0 0 0 0 47 459 763 1137 2160 2574 2722 2698 2559 2405 2244 2338 2355 2273
0 0 0 0 0 0 0 0 0 0 0 2 0 0 0 0 0 0 0 0 0 0 0 0 0 0 0 0 20 8 82 349 690 815 988 952 852 898 858 1008 1190 1178 1169 1034
0 0 0 0 0 0 0 0 2 1 1 3 0 0 0 0 0 0 0 0 0 0 14 13 0 0 4 0 98 212 203 356 631 519 517 579 670 709 874 949 916 952 958 876
0 0 0 0 0 0 0 1 0 0 6 4 2 0 0 0 0 0 0 0 0 0 14 39 1 0 103 31 63 157 216 375 584 632 683 706 667 734 860 1069 1107 1134 1090 1074
0 6 4 0 0 0 0 8 16 39 2 20 25 3 0 0 0 0 0 0 0 0 0 56 41 0 104 90 14 112 217 143 172 259 228 495 538 695 984 1299 1251 1188 1218 1160
0 0 1 1 0 0 1 0 2 1 0 0 36 1 0 0 0 0 0 0 0 0 0 0 61 26 27 20 69 61 0 0 28 14 32 268 282 609 1100 1341 1342 1323 1460 1724
8 2 0 3 1 0 3 1 9 26 61 19 29 0 0 0 0 0 0 0 0 0 0 0 0 0 0 0 6 22 14 0 0 0 0 66 456 553 744 1035 1343 1509 1678 1812
2 3 0 0 0 1 0 0 0 20 4 33 0 0 0 0 0 0 9 5 0 0 0 0 0 0 0 0 0 0 0 0 0 1 0 10 140 308 347 558 943 1355 1626 1594
0 3 1 0 0 0 0 0 0 0 0 2 0 0 0 0 0 0 1 0 0 0 0 0 0 0 0 0 0 0 0 0 0 0 0 0 0 2 30 378 327 862 1198 1207
3 2 3 0 0 0 0 0 0 0 0 0 0 0 11 21 7 3 5 0 0 0 0 0 0 0 0 0 0 0 0 0 0 0 0 0 0 0 0 14 50 485 787 889
0 0 2 0 1 0 0 0 0 0 0 0 10 48 50 15 11 1 0 0 0 0 0 0 0 0 0 0 0 0 0 0 0 0 0 0 0 0 0 0 8 251 518 509
0 0 7 9 11 0 0 2 5 5 0 0 1 3 10 5 9 0 0 0 0 0 0 0 0 0 0 0 0 0 0 0 0 0 0 0 0 0 0 0 14 175 167 105
0 0 16 1 6 6 0 2 0 2 6 0 6 2 0 4 6 0 0 0 1 4 7 4 0 2 9 6 0 0 0 0 0 0 0 0 0 0 0 0 0 0 8 10
14 9 2 1 21 4 0 0 0 32 14 0 0 3 11 11 15 25 31 30 20 20 34 22 30 26 34 19 12 4 0 0 0 0 0 0 0 0 0 0 0 0 0 0
27 45 24 18 30 15 0 2 11 16 0 7 6 11 18 18 20 22 25 32 39 47 35 32 39 69 58 38 26 17 23 15 7 6 1 0 0 0 0 0 0 0 0 0
43 62 76 27 59 0 0 0 0 1 5 8 11 14 18 22 24 33 28 36 32 33 59 49 40 70 16 36 56 30 25 15 16 7 5 5 0 0 0 0 0 0 0 0
17 0 45 18 6 5 0 0 0 3 11 14 10 23 26 26 21 28 32 43 39 47 61 29 76 60 30 26 47 17 37 24 20 19 14 11 11 7 11 7 2 0 0 0
7 26 20 13 7 1 1 0 4 4 9 17 12 10 34 23 28 43 37 38 43 47 40 68 38 34 21 32 13 3 12 27 37 44 35 27 21 27 20 16 11 10 5 0
14 15 30 17 4 5 4 5 14 21 17 12 18 20 19 35 38 41 39 37 30 33 39 39 37 48 35 25 25 29 48 53 51 31 47 34 22 22 13 23 25 1 0 0
CIN
0 0 0 0 0 0 0 0 0 0 0 0 0 0 0 0 0 0 0 0 0 0 0 0 0 0 0 0 -347 -258 -165 -173 -166 -158 -171 -166 -182 -205 -185 -176 -176 -124 -90 -63
0 0 0 0 0 0 0 0 0 0 0 0 0 0 0 0 0 0 0 0 0 0 0 0 0 0 0 0 -377 -428 -248 -132 -178 -194 -224 -196 -210 -223 -247 -210 -159 -125 -136 -116
0 0 0 0 0 0 0 0 0 0 0 0 0 0 0 0 0 0 0 0 0 0 0 0 0 0 0 0 0 -427 -327 -175 -134 -178 -191 -154 -137 -145 -208 -227 -194 -187 -192 -176
0 0 0 0 0 0 0 0 0 0 0 0 0 0 0 0 0 0 0 0 0 0 0 0 0 0 0 0 0 0 -360 -239 -124 -87 -93 -101 -142 -160 -200 -193 -218 -170 -150 -140
0 0 0 0 0 0 0 0 0 0 0 0 0 0 0 0 0 0 0 0 0 0 0 0 0 0 0 0 0 -452 -411 -356 -182 -60 -42 -80 -71 -84 -116 -139 -133 -105 -133 -150
0 0 0 0 0 0 0 0 0 0 0 0 0 0 0 0 0 0 0 0 0 0 0 0 0 0 0 0 0 0 -371 -391 -329 -144 -71 -29 -36 -49 -85 -96 -76 -71 -66 -76
0 0 0 0 0 0 0 0 0 0 0 0 0 0 0 0 0 0 0 0 0 0 0 0 0 0 0 0 0 0 -357 -306 -336 -232 -77 -35 -15 -11 -39 -71 -74 -79 -90 -92
0 0 0 0 0 0 0 0 0 0 0 0 0 0 0 0 0 0 0 0 0 0 0 0 0 0 0 0 0 0 -357 -298 -334 -330 -153 -79 -66 -65 -63 -83 -107 -80 -81 -89
0 0 0 0 0 0 0 0 0 0 0 0 0 0 0 0 0 0 0 0 0 0 0 0 0 0 0 0 -344 -433 -351 -299 -307 -329 -338 -359 -344 -299 -268 -259 -213 -191 -204 -203
0 0 0 0 0 0 0 0 -2 0 -1 0 0 0 0 0 0 0 0 0 0 0 -81 -88 0 0 -82 -52 -284 -336 -370 -310 -292 -359 -395 -353 -308 -271 -233 -237 -231 -218 -207 -203
0 0 0 0 0 0 0 -17 0 0 -20 0 0 0 0 0 0 0 0 0 0 0 -74 -86 -44 0 -126 -174 -264 -337 -345 -312 -298 -251 -220 -226 -254 -242 -211 -139 -131 -143 -155 -139
0 -11 0 0 0 0 0 -3 -7 -2 -2 -5 -1 0 0 0 0 0 0 0 0 0 0 -72 -95 0 -80 -105 -254 -252 -243 -287 -370 -317 -333 -232 -217 -180 -144 -101 -72 -94 -82 -72
0 -4 0 -1 0 0 -15 0 -30 -29 -7 0 0 0 0 0 0 0 0 0 0 0 0 -41 -83 -115 -123 -103 -94 -91 0 0 -158 -270 -237 -192 -247 -189 -135 -86 -80 -42 -22 -13
-2 0 0 0 0 0 -8 -7 -14 -15 -5 0 0 0 0 0 0 0 -4 -32 0 0 0 0 -41 0 0 -93 -154 -137 -138 0 0 0 -19 -141 -192 -157 -153 -107 -68 -46 -27 -19
0 0 0 0 0 0 0 0 0 -2 -1 0 0 0 0 0 0 0 -105 -130 0 0 0 0 0 0 0 0 0 0 0 0 0 -22 0 -148 -131 -135 -186 -144 -91 -52 -35 -24
0 0 -5 0 0 0 0 0 0 0 0 0 0 0 0 0 0 0 -105 0 0 0 0 0 0 0 0 0 0 0 0 0 0 0 0 0 0 -208 -257 -159 -156 -93 -67 -49
0 -1 0 0 0 0 0 0 0 0 0 0 0 0 -2 -2 -2 0 0 0 0 0 0 0 0 0 0 0 0 0 0 0 0 0 0 0 0 0 0 -256 -187 -131 -106 -105
0 0 -2 0 0 0 0 0 0 0 0 -1 -4 -1 0 -1 -3 0 0 0 0 0 0 0 0 0 0 0 0 0 0 0 0 0 0 0 0 0 0 -65 -122 -151 -148 -159
0 0 0 0 0 0 0 0 0 0 0 0 -1 0 0 0 0 0 0 0 0 0 0 0 0 0 0 0 0 0 0 0 0 0 0 0 0 0 0 0 -131 -146 -158 -169
0 0 0 0 0 0 0 0 0 -5 0 0 0 0 0 0 0 0 0 0 0 0 0 0 0 0 0 0 0 0 0 0 0 0 0 0 0 0 0 0 0 0 -175 -137
0 0 0 0 0 0 0 0 0 0 -1 0 0 0 0 0 0 0 0 0 0 0 0 -1 0 0 0 0 0 0 0 0 0 0 0 0 0 0 0 0 0 0 0 0
0 0 0 -1 0 0 0 -7 0 0 0 0 0 0 0 0 0 0 0 0 0 0 0 0 0 0 0 0 0 0 0 0 0 0 0 0 0 0 0 0 0 0 0 0
0 0 0 0 0 0 0 0 0 0 0 0 0 0 0 0 0 0 0 0 0 0 0 0 0 0 0 0 0 0 0 0 0 0 0 0 0 0 0 0 0 0 0 0
-1 -11 0 0 -2 0 0 0 0 0 0 0 0 0 0 0 0 0 0 0 0 0 0 0 0 0 0 -3 0 0 0 0 0 0 0 0 0 0 0 0 0 0 0 0
-1 -1 0 0 0 -4 -1 0 0 0 0 0 0 0 0 0 0 0 0 0 0 0 0 0 0 0 0 0 0 -1 -1 0 0 0 0 0 0 0 0 0 0 0 0 0
0 -1 0 0 -3 0 0 0 0 0 0 0 0 0 0 0 0 0 0 0 0 0 0 0 0 0 0 0 0 0 0 0 0 0 0 0 0 0 0 0 0 -6 0 0
Wind_Speed
2 6 11 13 10 4 4 5 9 12 13 5 11 12 12 14 14 14 12 11 11 13 12 11 11 10 11 12 12 15 16 17 13 13 14 12 14 13 12 13 17 16 15 18
4 11 12 8 8 8 7 9 11 11 11 8 12 14 15 15 11 10 12 15 18 18 16 14 13 10 10 12 13 14 18 17 16 13 12 11 11 11 11 11 13 14 16 15
11 3 9 9 8 9 10 10 10 11 9 8 12 15 9 8 11 13 14 15 17 17 19 19 17 14 12 11 13 14 17 19 19 19 11 9 7 5 9 11 12 13 14 13
9 12 12 8 11 10 12 10 13 10 8 10 4 10 16 11 8 8 14 15 14 17 19 18 19 18 16 15 11 14 14 16 17 18 14 18 14 13 12 12 12 11 14 14
4 5 7 8 9 12 9 4 9 10 11 8 13 15 3 11 16 13 8 14 16 17 18 21 21 19 20 17 14 11 13 15 16 16 16 15 15 12 8 9 13 12 12 15
10 2 4 7 2 10 2 4 3 2 5 13 15 15 5 8 12 11 14 9 13 17 18 18 19 19 18 17 13 12 12 15 16 17 19 18 16 14 11 11 11 11 9 9
11 17 11 9 13 7 6 6 7 8 9 13 5 11 12 14 16 12 8 8 13 17 19 19 20 19 16 17 16 12 14 15 15 18 18 19 17 15 15 12 10 11 9 9
6 9 5 5 12 9 9 10 8 9 12 16 12 10 9 5 12 11 9 9 14 17 18 19 19 18 18 16 17 15 16 16 15 16 16 13 13 9 9 10 8 7 8 7
6 5 1 3 2 2 6 8 2 7 6 11 11 14 11 13 10 7 9 13 17 18 18 19 18 17 18 14 15 15 16 16 15 14 12 10 9 9 9 10 8 6 5 5
4 6 2 2 2 6 3 8 4 1 8 17 9 15 12 15 7 10 13 15 17 17 18 19 17 15 15 15 9 10 13 15 11 10 9 10 10 7 6 7 8 8 7 7
1 5 5 2 6 11 5 5 2 2 3 7 12 5 2 9 12 15 11 16 16 15 16 17 16 14 12 14 6 4 5 8 11 10 9 9 9 9 9 9 9 10 10 9
2 4 9 15 10 4 5 9 8 6 7 6 9 16 15 19 11 7 16 19 14 12 14 14 16 11 8 10 10 7 4 4 6 3 4 8 8 11 11 10 11 11 11 11
1 2 6 4 4 3 6 6 7 4 6 15 16 14 5 6 15 19 20 16 11 11 13 13 13 12 10 12 11 8 9 8 3 3 5 5 5 6 6 9 10 10 11 11
1 6 12 12 10 5 7 11 14 14 9 15 19 28 24 21 21 19 17 11 11 11 12 14 12 10 11 12 13 13 6 10 12 7 8 8 8 6 8 6 9 11 11 13
9 12 16 18 21 18 15 15 14 17 21 21 24 25 24 24 22 19 12 11 11 12 16 13 12 10 9 11 13 14 13 6 9 12 9 10 8 5 7 9 10 10 12 12
3 10 5 12 11 14 18 20 21 23 24 24 25 30 21 14 9 11 13 12 14 15 17 14 13 11 10 8 9 11 11 10 2 11 10 8 9 7 9 10 11 12 12 12
6 6 6 12 7 9 13 18 19 20 19 16 18 19 10 12 14 15 14 14 18 19 17 16 15 12 11 11 9 10 9 9 5 4 6 9 7 5 6 8 10 12 13 12
13 6 4 8 6 7 3 2 2 4 10 11 16 16 16 15 13 16 16 19 20 19 19 18 16 17 17 14 13 11 11 9 10 9 6 6 4 8 8 5 8 11 10 13
14 10 4 4 6 13 9 2 2 4 13 11 16 15 12 16 22 25 19 14 16 20 21 20 20 19 17 17 16 14 13 13 12 11 9 8 5 6 9 6 7 7 8 10
6 7 7 4 5 5 5 2 3 3 11 7 9 19 25 23 19 17 17 20 25 24 22 23 22 21 20 18 16 16 16 15 14 12 11 10 10 10 10 10 6 5 6 8
4 2 9 8 5 7 3 4 5 6 6 17 17 23 23 20 20 25 24 25 24 22 25 25 24 22 20 19 18 19 18 17 15 13 13 13 13 13 13 11 9 9 8 8
3 4 3 3 5 5 5 7 6 12 21 16 23 23 20 20 24 26 25 24 23 25 28 23 20 22 20 19 20 20 19 16 15 15 16 15 14 12 11 13 11 11 11 12
2 3 1 4 3 2 4 9 14 12 17 24 23 22 23 23 25 26 25 26 25 25 22 20 21 21 21 19 20 22 19 18 18 18 19 18 16 15 15 14 14 11 13 13
1 2 4 5 1 12 14 10 13 19 20 22 21 20 22 28 28 27 25 20 19 20 17 19 19 19 19 14 17 19 20 19 18 18 19 16 15 15 15 12 12 11 12 12
2 2 2 7 9 14 2 16 20 24 22 20 20 24 26 28 26 26 23 24 20 19 19 16 17 20 18 14 13 15 18 16 16 18 16 14 11 13 13 12 11 12 14 13
1 1 2 5 10 8 17 18 21 20 22 22 24 27 25 25 27 28 22 20 19 18 16 17 17 16 19 20 17 13 16 15 13 13 11 10 9 9 9 11 12 16 16 10
Wind_Direction
101 209 216 213 209 220 238 242 257 265 272 274 277 284 289 301 303 301 300 293 280 279 281 278 274 274 265 256 244 225 216 211 200 202 203 202 207 204 206 209 203 205 205 208
196 243 238 212 201 217 219 255 262 271 262 215 276 276 289 281 279 277 286 294 294 292 284 281 284 279 257 254 236 228 225 213 200 202 206 207 209 210 206 205 206 213 215 215
224 208 104 193 209 227 233 236 260 271 303 243 278 278 267 267 246 270 274 269 273 280 292 298 291 280 286 257 247 239 227 219 208 202 197 198 177 185 191 201 206 205 207 208
242 249 245 224 240 219 263 227 254 269 279 289 13 290 295 298 274 264 279 295 318 305 299 294 292 294 290 268 248 243 235 223 217 203 196 199 199 194 207 207 203 198 197 200
205 181 169 203 232 185 255 202 254 277 269 290 277 277 209 284 293 290 332 328 333 332 314 297 294 294 293 286 280 249 232 227 220 209 213 200 207 215 194 199 198 204 204 207
260 241 239 256 183 205 147 256 286 263 281 258 268 262 288 290 291 298 312 328 338 342 336 323 306 293 283 283 280 267 235 227 213 207 207 211 207 204 192 188 193 200 206 204
254 243 256 230 255 185 214 253 269 253 234 267 335 286 270 291 281 297 289 318 334 328 331 329 325 312 300 293 289 271 243 233 214 210 209 210 212 204 203 183 187 185 192 197
261 270 212 182 226 248 206 219 232 266 272 287 309 262 289 285 300 297 283 324 331 336 333 329 330 320 310 305 292 275 251 235 210 197 202 201 202 191 194 184 183 192 200 196
199 247 265 49 121 244 149 211 341 278 237 273 261 267 268 271 290 340 343 343 347 336 329 325 316 335 318 311 303 279 262 241 214 200 179 173 171 169 167 167 175 170 172 167
192 267 201 108 109 63 241 134 184 201 283 282 271 282 270 287 293 319 326 338 338 330 331 332 320 313 325 307 309 288 266 248 207 186 166 165 167 163 151 151 167 172 170 174
155 253 231 222 227 247 173 196 100 330 213 275 299 263 198 271 297 305 302 323 326 325 331 335 324 306 323 314 330 330 281 228 189 166 173 169 162 162 164 172 175 172 161 163
14 264 257 260 272 276 265 240 215 222 219 236 266 280 274 273 283 258 291 313 316 318 332 337 340 319 323 346 26 38 113 119 65 80 235 172 194 176 178 173 176 166 161 164
121 240 277 245 202 184 235 202 218 230 256 247 263 267 184 214 294 297 304 306 307 322 336 340 352 355 341 338 339 25 45 25 30 234 246 252 220 194 213 192 161 179 168 165
299 260 257 261 291 307 262 239 227 223 235 262 250 273 279 288 293 304 300 295 307 316 328 335 336 350 357 4 5 354 294 24 14 329 284 239 220 190 227 227 207 183 181 173
240 244 255 258 264 268 264 258 245 229 243 253 273 274 288 296 297 293 288 286 303 315 322 325 319 322 342 357 0 6 9 4 2 340 341 304 273 230 217 212 221 210 188 187
224 256 238 265 274 272 270 263 256 253 252 257 264 277 287 297 285 265 272 287 299 305 312 312 312 301 311 330 336 341 348 357 269 287 312 334 310 257 220 221 205 214 202 195
252 247 264 276 300 296 268 259 259 258 256 260 261 274 316 281 278 277 288 293 297 302 300 299 300 296 291 296 304 303 313 315 300 255 279 309 323 329 241 231 219 215 204 191
236 228 226 277 297 251 36 346 344 293 275 260 268 274 281 295 291 288 287 288 289 293 295 293 291 292 288 284 285 282 283 279 280 282 279 268 336 329 313 257 232 226 203 194
220 210 212 242 237 295 289 86 320 339 298 289 289 306 311 309 300 284 280 276 285 293 294 290 288 287 283 279 282 281 273 271 267 262 265 272 276 269 279 259 224 222 197 189
144 204 197 175 244 267 48 153 354 293 278 38 337 311 305 303 284 282 293 299 295 289 286 287 285 283 276 270 271 277 275 267 265 259 256 256 258 251 248 250 243 236 216 215
125 146 214 227 256 276 11 339 305 264 352 317 316 313 305 290 277 292 297 292 289 287 281 290 279 274 268 267 265 268 268 266 266 261 260 258 254 250 253 256 246 247 242 242
200 187 189 199 236 263 23 340 320 324 305 306 310 307 296 292 290 288 288 285 285 285 276 279 273 271 262 261 257 258 258 260 260 260 258 257 256 248 246 245 249 243 239 242
240 348 342 246 301 353 298 298 299 307 300 309 310 305 297 294 291 291 291 286 280 281 275 271 275 261 268 261 251 251 259 260 255 255 256 252 249 249 243 240 241 240 236 238
101 179 256 317 144 321 316 316 324 318 309 307 300 300 306 297 295 295 295 297 295 287 276 285 263 268 270 272 259 246 252 257 248 253 251 241 242 240 233 233 231 234 237 237
316 300 348 268 294 325 295 326 320 317 307 306 307 294 297 301 301 300 300 298 296 292 284 266 269 273 267 270 266 262 255 248 245 249 246 243 242 230 228 232 237 236 240 238
183 121 274 294 338 294 298 313 313 305 310 311 307 304 306 306 302 303 300 301 296 293 288 279 274 267 270 270 263 260 247 234 235 247 241 233 230 231 238 244 239 217 239 222